KSVC  Grant County Airport

Add Bookmark

Silver City, New Mexico, United States

Status Useage IATA
Operational Public SVC
Latitude Longitude
32° 38' 11" N 108° 9' 22" W
32.636547 -108.156385
Local (DST -6) UTC (GMT -7)
Oct 24, 2014 12:59 Oct 24, 2014 06:59
Sunrise-Sunset Local UTC
Begin Civil Twilight 06:58 12:58
Sunrise 07:23 13:23
Sunset 06:30 00:30
End Civil Twilight 06:55 00:55

Current Weather

METAR Observed VFR
KSVC 240635Z AUTO 36009KT 10SM CLR 12/07 A3029 Fri, Oct 24, 2014 @ 06:35 UTC
(24 Minutes ago)
Visual Flight Rules
Wind Visibility Clouds Conditions
360° at 9 knots (10 mph) 10 statute miles
  • Clear skies
  • No significant weather
Temperatures Readings Precipitation
Current Temp 12°C (54°F)
Dewpoint 7°C (45°F)
Humidity 72%
Altimeter 30.29"Hg
Sea Level Pressure 1026mb
Field Elevation 5443.01'
None Recorded

Additional weather within a 50nm radius of KSVC

Map ICAO Location
KDMN 31.5nm S (135°)
KLSB 32.6nm S (236°)

24 Hour Weather History

Loading
-

24 Hour Weather Graphs

Loading
-

CheckWX.com is intended as a tool to help pilots better visualize weather data. It is not intended as a substitute for an official weather briefing obtained from a Flight Service Station. CheckWX.com does not meet the FAA requirements for an official pre-flight weather briefing. Therefore, it's important that pilots still call and obtain an official FSS pre-flight weather briefing.